| time (UTC) | temp C | wind direction | speed KPH | gust KPH | rain 1hr cm | rain 24hr cm | rain mn cm | humidity % | barometer mb |
| 20260504001508 | 13 | 186 | 1.6 | 6.4 | 0.00 | 0.03 | 0.03 | 56 | 1007.5 |
| 20260504000017 | 13 | 188 | 0.0 | 6.4 | 0.00 | 0.03 | 0.03 | 57 | 1007.6 |
| 20260503234518 | 13 | 263 | 0.0 | 4.8 | 0.00 | 0.03 | 0.03 | 58 | 1007.7 |
| 20260503233004 | 13 | 296 | 1.6 | 8.0 | 0.00 | 0.03 | 0.03 | 58 | 1007.8 |
| 20260503231509 | 13 | 204 | 0.0 | 4.8 | 0.00 | 0.03 | 0.03 | 64 | 1008.0 |
| 20260503230010 | 12 | 205 | 0.0 | 3.2 | 0.03 | 0.03 | 0.03 | 66 | 1008.2 |
| 20260503224504 | 12 | 202 | 1.6 | 6.4 | 0.03 | 0.03 | 0.03 | 71 | 1008.3 |
| 20260503223003 | 12 | 237 | 0.0 | 1.6 | 0.03 | 0.03 | 0.03 | 76 | 1008.4 |
| 20260503221504 | 11 | 236 | 0.0 | 4.8 | 0.03 | 0.03 | 0.03 | 78 | 1008.3 |
| 20260503220008 | 12 | 237 | 0.0 | 6.4 | 0.00 | 0.00 | 0.00 | 76 | 1008.8 |
| 20260503214512 | 12 | 275 | 1.6 | 9.7 | 0.00 | 0.00 | 0.00 | 75 | 1009.1 |
| 20260503213007 | 12 | 242 | 1.6 | 6.4 | 0.00 | 0.00 | 0.00 | 72 | 1008.9 |
| 20260503211504 | 13 | 261 | 1.6 | 8.0 | 0.00 | 0.00 | 0.00 | 67 | 1008.6 |
| 20260503210008 | 15 | 297 | 4.8 | 14.5 | 0.00 | 0.00 | 0.00 | 61 | 1008.3 |
| 20260503204511 | 15 | 312 | 3.2 | 14.5 | 0.00 | 0.00 | 0.00 | 54 | 1008.0 |
| 20260503203020 | 16 | 277 | 3.2 | 12.9 | 0.00 | 0.00 | 0.00 | 58 | 1007.9 |
| 20260503201504 | 15 | 166 | 3.2 | 9.7 | 0.00 | 0.00 | 0.00 | 59 | 1008.1 |
| 20260503200005 | 15 | 221 | 3.2 | 9.7 | 0.00 | 0.00 | 0.00 | 57 | 1008.2 |
| 20260503194508 | 15 | 203 | 0.0 | 11.3 | 0.00 | 0.00 | 0.00 | 58 | 1008.3 |
| 20260503193030 | 15 | 180 | 1.6 | 8.0 | 0.00 | 0.00 | 0.00 | 56 | 1008.5 |
| 20260503191518 | 15 | 171 | 1.6 | 12.9 | 0.00 | 0.00 | 0.00 | 54 | 1008.8 |
| 20260503190004 | 14 | 190 | 3.2 | 11.3 | 0.00 | 0.00 | 0.00 | 56 | 1008.9 |
| 20260503184505 | 15 | 165 | 4.8 | 12.9 | 0.00 | 0.00 | 0.00 | 53 | 1009.2 |
| 20260503183008 | 15 | 257 | 3.2 | 14.5 | 0.00 | 0.00 | 0.00 | 53 | 1009.3 |
| 20260503181513 | 15 | 173 | 6.4 | 16.1 | 0.00 | 0.00 | 0.00 | 54 | 1009.4 |
| 20260503180019 | 15 | 205 | 9.7 | 19.3 | 0.00 | 0.00 | 0.00 | 55 | 1009.7 |
| 20260503174506 | 13 | 198 | 6.4 | 19.3 | 0.00 | 0.00 | 0.00 | 55 | 1009.9 |
| 20260503173024 | 13 | 165 | 4.8 | 17.7 | 0.00 | 0.00 | 0.00 | 54 | 1010.1 |
| 20260503171514 | 13 | 177 | 4.8 | 17.7 | 0.00 | 0.00 | 0.00 | 56 | 1010.4 |
| 20260503081541 | 3 | 325 | 0.0 | 4.8 | 0.00 | 0.00 | 0.00 | 74 | 1013.6 |
| 20260503071521 | 3 | 271 | 0.0 | 4.8 | 0.00 | 0.00 | 0.00 | 68 | 1013.7 |
| 20260503054526 | 3 | 227 | 0.0 | 1.6 | 0.00 | 0.00 | 0.00 | 66 | 1014.3 |
| 20260503053020 | 3 | 227 | 0.0 | 1.6 | 0.00 | 0.00 | 0.00 | 66 | 1014.3 |
| 20260503051521 | 3 | 227 | 0.0 | 1.6 | 0.00 | 0.00 | 0.00 | 65 | 1014.3 |
| 20260503050025 | 4 | 227 | 0.0 | 1.6 | 0.00 | 0.00 | 0.00 | 65 | 1014.5 |
| 20260503044513 | 4 | 227 | 0.0 | 3.2 | 0.00 | 0.00 | 0.00 | 67 | 1014.5 |
| 20260503043015 | 4 | 229 | 0.0 | 3.2 | 0.00 | 0.00 | 0.00 | 68 | 1014.5 |
| 20260503041520 | 4 | 181 | 0.0 | 4.8 | 0.00 | 0.00 | 0.00 | 70 | 1014.5 |
| 20260503040024 | 4 | 168 | 1.6 | 6.4 | 0.00 | 0.00 | 0.00 | 70 | 1014.6 |
| 20260503034528 | 4 | 177 | 0.0 | 4.8 | 0.00 | 0.00 | 0.00 | 70 | 1014.6 |
| 20260503033021 | 5 | 167 | 1.6 | 4.8 | 0.00 | 0.00 | 0.00 | 69 | 1014.7 |
| 20260503031518 | 5 | 162 | 0.0 | 6.4 | 0.00 | 0.00 | 0.00 | 69 | 1014.7 |
| 20260503030021 | 5 | 169 | 0.0 | 4.8 | 0.00 | 0.00 | 0.00 | 69 | 1014.7 |
| 20260503024526 | 5 | 166 | 0.0 | 6.4 | 0.00 | 0.00 | 0.00 | 69 | 1014.8 |
| 20260503023026 | 5 | 174 | 0.0 | 3.2 | 0.00 | 0.00 | 0.00 | 69 | 1014.9 |
| 20260503021516 | 5 | 174 | 0.0 | 3.2 | 0.00 | 0.00 | 0.00 | 68 | 1015.0 |
| 20260503020020 | 5 | 207 | 0.0 | 3.2 | 0.00 | 0.00 | 0.00 | 67 | 1015.0 |
| 20260503014524 | 6 | 261 | 0.0 | 1.6 | 0.00 | 0.00 | 0.00 | 66 | 1015.0 |
| 20260503013026 | 6 | 269 | 0.0 | 1.6 | 0.00 | 0.00 | 0.00 | 65 | 1014.9 |
| 20260503011529 | 6 | 269 | 0.0 | 1.6 | 0.00 | 0.00 | 0.00 | 64 | 1015.0 |
| 20260503010030 | 6 | 277 | 0.0 | 1.6 | 0.00 | 0.00 | 0.00 | 63 | 1014.9 |
| 20260503004528 | 6 | 278 | 0.0 | 1.6 | 0.00 | 0.00 | 0.00 | 64 | 1014.8 |
| 20260503003039 | 6 | 278 | 0.0 | 1.6 | 0.00 | 0.00 | 0.00 | 63 | 1014.7 |